Location: DARK SKY Beskydy - Park tmavé oblohy, www.darkskybeskydy.cz
(49.4926°N, 18.5016°E)
Time: 19:24:27
(UTC+02:00)

PCSat - Pass Details

Date: 08 August 2024
Orbit: 781 x 793 km, 67.1° (Epoch: 08 September)

Event Time Altitude Azimuth Distance (km) Brightness Sun altitude
Rises 22:05:51 0° 300° (WNW) 3,293 14.2 -15.2°
Reaches altitude 10° 22:09:56 10° 330° (NNW) 2,367 13.4 -15.6°
Maximum altitude 22:12:07 12° 354° (N) 2,207 12.7 -15.8°
Drops below altitude 10° 22:14:19 10° 18° (NNE) 2,369 12.5 -16.0°
Sets 22:18:25 0° 48° (NE) 3,300 12.8 -16.5°
